ギブス彗星

C/2008 G1 ( Gibbs )

English version
Home page
Updated on April 6, 2013

---------------------------------------------------------------------

・ プロフィール

発見日 2008年4月7日
発見光度 19.4等
発見者 A. R. Gibbs (Mt. Lemmon)

・ 写真集

・ 軌道要素

Epoch 2009 Jan. 9.0 TT = JDT 2454840.5
T 2009 Jan. 12.08098 TT                                 MPC
q   3.9896179            (2000.0)            P               Q
z  +0.0027215      Peri.   63.72050     -0.20352740     +0.80271389
 +/-0.0000194      Node   215.91763     -0.77549113     +0.21732772
e   0.9891423      Incl.   72.85711     +0.59765383     +0.55535491
From 147 observations 2008 Apr. 7-July 4, mean residual 0".6.

・ 光度変化

        m1 = 9.5 + 5 logΔ + 10.0 log r

---------------------------------------------------------------------

軌道要素はM.P.E.C. 2013-B90に掲載されたものです。
光度グラフはComet for Windowsで作成したものです。

---------------------------------------------------------------------

Copyright(C) Seiichi Yoshida (comet@aerith.net). All rights reserved.